Estación de Azapa medio
Ultimos registro cada 15 minutos 24
| N° | Estación | Fecha / Hora | Temperatura | Humedad | Lluvia | Velocidad | Dirección | Radiación | Presion |
| 24 | Azapa medio | 06-05-2026 05:45 | 13 | 76,7 | 0 | 0 | 19 | 0 | 970 |
| 23 | Azapa medio | 06-05-2026 05:30 | 13,1 | 76,4 | 0 | 0,1 | 19 | 0 | 970 |
| 22 | Azapa medio | 06-05-2026 05:15 | 13,2 | 77,4 | 0 | 0 | 0 | 0 | 970 |
| 21 | Azapa medio | 06-05-2026 05:00 | 13,2 | 75,9 | 0 | 0 | 0 | 0 | 970 |
| 20 | Azapa medio | 06-05-2026 04:45 | 13,1 | 75,8 | 0 | 0 | 0 | 0 | 970 |
| 19 | Azapa medio | 06-05-2026 04:30 | 12,8 | 77,4 | 0 | 0 | 19 | 0 | 970 |
| 18 | Azapa medio | 06-05-2026 04:15 | 12,6 | 76,6 | 0 | 0 | 0 | 0 | 970 |
| 17 | Azapa medio | 06-05-2026 04:00 | 12,8 | 75,6 | 0 | 0 | 0 | 0 | 970 |
| 16 | Azapa medio | 06-05-2026 03:45 | 13 | 73,9 | 0 | 0 | 0 | 0 | 970 |
| 15 | Azapa medio | 06-05-2026 03:30 | 13,5 | 71,7 | 0 | 0 | 0 | 0 | 970 |
| 14 | Azapa medio | 06-05-2026 03:15 | 13,7 | 70,2 | 0 | 0,2 | 19 | 0 | 970 |
| 13 | Azapa medio | 06-05-2026 03:00 | 13,7 | 70 | 0 | 0,3 | 19 | 0 | 970 |
| 12 | Azapa medio | 06-05-2026 02:45 | 13,5 | 71,3 | 0 | 0,5 | 19 | 0 | 970 |
| 11 | Azapa medio | 06-05-2026 02:30 | 13,4 | 72,8 | 0 | 0,5 | 19 | 0 | 970 |
| 10 | Azapa medio | 06-05-2026 02:15 | 13,3 | 73,1 | 0 | 0,2 | 19 | 0 | 970 |
| 9 | Azapa medio | 06-05-2026 02:00 | 13,3 | 73,7 | 0 | 0,1 | 19 | 0 | 970 |
| 8 | Azapa medio | 06-05-2026 01:45 | 13,4 | 73,3 | 0 | 0,5 | 19 | 0 | 971 |
| 7 | Azapa medio | 06-05-2026 01:30 | 13,4 | 72,8 | 0 | 0,6 | 19 | 0 | 971 |
| 6 | Azapa medio | 06-05-2026 01:15 | 13,6 | 71,1 | 0 | 0,2 | 19 | 0 | 970 |
| 5 | Azapa medio | 06-05-2026 01:00 | 14,2 | 69,8 | 0 | 0 | 0 | 0 | 971 |
| 4 | Azapa medio | 06-05-2026 00:45 | 14,9 | 65,7 | 0 | 0 | 0 | 0 | 970 |
| 3 | Azapa medio | 06-05-2026 00:30 | 15,6 | 64,3 | 0 | 0,1 | 20 | 0 | 971 |
| 2 | Azapa medio | 06-05-2026 00:15 | 15,5 | 60 | 0 | 0,6 | 20 | 0 | 970 |
| 1 | Azapa medio | 06-05-2026 00:00 | 15,2 | 62,5 | 0 | 0,5 | 26 | 0 | 971 |